Location: Three Guys Observatory
(38.6418°N, 87.1521°W)
Time: 06:24:18
(UTC-04:00)

ISS - Visible Passes

Search period start: 28 May 2017 00:00
Search period end: 07 June 2017 00:00
Orbit: 402 x 408 km, 51.6° (Epoch: 28 May)

Date Brightness Start Highest point End Pass type
(mag) Time Alt. Az. Time Alt. Az. Time Alt. Az.
28 May -0.5 01:55:33 10° NNW 01:57:07 13° NNE 01:57:37 12° NNE visible
28 May -1.4 21:46:43 10° W 21:49:36 27° NNW 21:52:30 10° NNE visible
29 May -0.3 01:04:17 10° N 01:04:45 10° N 01:05:13 10° NNE visible
29 May -0.5 22:33:09 10° NW 22:34:35 12° NNW 22:36:02 10° N visible
30 May -0.6 01:47:22 10° NNW 01:48:14 14° NNW 01:48:14 14° NNW visible
30 May -0.8 21:40:04 10° WNW 21:42:14 16° NNW 21:44:25 10° NNE visible
31 May -0.7 00:55:41 10° NNW 00:57:32 14° NNE 00:57:35 14° NNE visible
01 Jun -0.6 00:04:09 10° N 00:05:09 11° NNE 00:06:09 10° NNE visible
01 Jun -0.5 01:39:20 10° NW 01:39:39 12° NW 01:39:39 12° NW visible
02 Jun -1.1 00:47:29 10° NNW 00:49:07 19° N 00:49:07 19° N visible
02 Jun -1.2 23:55:44 10° NNW 23:57:51 16° NNE 23:58:39 15° NE visible
03 Jun -0.9 23:04:04 10° N 23:05:26 12° NNE 23:06:48 10° NE visible
04 Jun -1.3 00:39:26 10° NW 00:40:50 22° NNW 00:40:50 22° NNW visible
04 Jun -2.0 23:47:31 10° NNW 23:50:22 26° NNE 23:50:24 26° NNE visible
05 Jun -1.4 22:55:41 10° NNW 22:58:02 18° NNE 23:00:00 12° ENE visible
06 Jun -1.3 00:31:33 10° NW 00:32:39 19° WNW 00:32:39 19° WNW visible
06 Jun -1.1 22:03:56 10° NNW 22:05:36 13° NNE 22:07:17 10° NE visible
06 Jun -3.1 23:39:26 10° NW 23:42:16 51° N 23:42:16 51° N visible
